Regional Weather Roundup
Issued by NWS

Home | Current Version | Previous Version | Graphics & Text | Print | Product List | Glossary On
Versions: 1 2 3 4 5 6 7 8 9 10 11 12 13 14 15 16 17 18 19 20 21 22 23 24 25 26 27 28 29 30 31 32 33 34 35 36 37 38 39 40 41 42 43 44 45 46 47 48 49 50
000
ASUS45 KABQ 191901
RWRNM
NEW MEXICO REGIONAL WEATHER ROUNDUP
NATIONAL WEATHER SERVICE ALBUQUERQUE NM
1200 PM MST SUN FEB 19 2017

NOTE: "FAIR" MEANS FEW OR NO CLOUDS BELOW 12,000 FEET AGL WITH NO
       SIGNIFICANT WEATHER OR OBSTRUCTIONS TO VISION.

      THIS PRODUCT IS RELEASED AS TWO VERSIONS.  ONE VERSION NEAR
      THE TOP OF THE HOUR CONTAINING PRELIMINARY DATA FROM ALBUQUERQUE
      AND OTHER STATIONS.  A FINAL VERSION WITH ADDITIONAL DATA IS
      ISSUED ABOUT 10 MINUTES AFTER THE HOUR.

NMZ501-503-504-510>518-192000-
NORTHWEST PLATEAU/NORTHCENTRAL MOUNTAINS

CITY           SKY/WX    TMP DP  RH WIND       PRES   REMARKS
FARMINGTON     CLOUDY    46  26  45 W6        29.83F
LOS ALAMOS     CLOUDY    41  32  72 S9G18     29.86S
SANTA FE       PTSUNNY   45  31  58 SW13      29.85F
TAOS             N/A     45  28  53 SW17G23   29.82F
ANGEL FIRE     PTSUNNY   40  28  62 W17G26    29.81F WCI  31

$$
NMZ402-403-502-505>509-192000-
WESTCENTRAL MOUNTAINS/SOUTHWEST MOUNTAINS

CITY           SKY/WX    TMP DP  RH WIND       PRES   REMARKS
GALLUP         LGT RAIN  44  33  65 W20G29    29.90R
GRANTS         CLOUDY    44  25  46 W5        29.89F
SILVER CITY    LGT RAIN  44  32  61 W15       29.96S

$$
NMZ407-409-411-412-192000-
SOUTHERN DESERTS

CITY           SKY/WX    TMP DP  RH WIND       PRES   REMARKS
DEMING         PTSUNNY   50  34  54 SW14G21   29.96F
LAS CRUCES     FAIR      52  32  45 SW18      29.96S
HOLLOMAN AFB   FAIR      55  31  39 W18       29.95S
ALAMOGORDO     FAIR      55  28  35 SW9G16    29.92F
T OR C         CLOUDY    53  30  41 MISG      29.90S

$$
NMZ519>523-192000-
CENTRAL VALLEYS/CENTRAL HIGHLANDS

CITY           SKY/WX    TMP DP  RH WIND       PRES   REMARKS
ALBUQUERQUE    PTSUNNY   48  35  60 CALM      29.87F
DOUBLE EAGLE   PTSUNNY   46  37  71 SW17      29.88F
MORIARTY ARPT  FAIR      51  27  39 S6        29.88S
CLINES CORNERS FAIR      43  26  51 SW15G21   29.88S
BELEN          FAIR      52  32  46 SW6       29.87F
SOCORRO        CLOUDY    48  36  63 SE10      29.90S

$$
NMZ524>526-539-540-192000-
SOUTHCENTRAL MOUNTAINS

CITY           SKY/WX    TMP DP  RH WIND       PRES   REMARKS
RUIDOSO        NOT AVBL

$$
NMZ527>531-192000-
NORTHEAST HIGHLANDS/NORTHEAST PLAINS

CITY           SKY/WX    TMP DP  RH WIND       PRES   REMARKS
LAS VEGAS      FAIR      46  26  45 SW22G30   29.83F
RATON          PTSUNNY   47  31  53 S7        29.77F
CLAYTON        PTSUNNY   53  43  68 S13       29.79F

$$
NMZ532>537-192000-
EASTCENTRAL PLAINS

CITY           SKY/WX    TMP DP  RH WIND       PRES   REMARKS
TUCUMCARI      FAIR      60  35  39 SW14      29.80S
CANNON AFB     PTSUNNY   56  43  61 S6        29.81F
CLOVIS AIRPORT FAIR      55  39  54 SW3       29.83F

$$
NMZ028-029-538-192000-
SOUTHEAST PLAINS

CITY           SKY/WX    TMP DP  RH WIND       PRES   REMARKS
ROSWELL        FAIR      62  25  24 SW16G30     N/A
ARTESIA        FAIR      59  30  33 SW23      29.86F
CARLSBAD       FAIR      59  34  39 CALM      29.86F
HOBBS          MOSUNNY   63  30  29 S15G25    29.88S


$$




USA.gov is the U.S. government's official web portal to all federal, state and local government web resources and services.